Year,Month,Day,Hour,Minute,Value (Times are PST for barometer in hPa)
2011,11,23,00,00,994.96
2011,11,23,00,01,994.96
2011,11,23,00,02,994.96
2011,11,23,00,03,994.89
2011,11,23,00,04,994.89
2011,11,23,00,05,994.85
2011,11,23,00,06,994.85
2011,11,23,00,07,994.85
2011,11,23,00,08,994.89
2011,11,23,00,09,994.85
2011,11,23,00,10,994.85
2011,11,23,00,11,994.82
2011,11,23,00,12,994.82
2011,11,23,00,13,994.79
2011,11,23,00,14,994.79
2011,11,23,00,15,994.79
2011,11,23,00,16,994.75
2011,11,23,00,17,994.75
2011,11,23,00,18,994.68
2011,11,23,00,19,994.68
2011,11,23,00,20,994.62
2011,11,23,00,21,994.65
2011,11,23,00,22,994.55
2011,11,23,00,23,994.55
2011,11,23,00,24,994.58
2011,11,23,00,25,994.55
2011,11,23,00,26,994.58
2011,11,23,00,27,994.62
2011,11,23,00,28,994.65
2011,11,23,00,29,994.65
2011,11,23,00,30,994.62
2011,11,23,00,31,994.62
2011,11,23,00,32,994.68
2011,11,23,00,33,994.72
2011,11,23,00,34,994.75
2011,11,23,00,35,994.72
2011,11,23,00,36,994.65
2011,11,23,00,37,994.62
2011,11,23,00,38,994.68
2011,11,23,00,39,994.72
2011,11,23,00,40,994.75
2011,11,23,00,41,994.75
2011,11,23,00,42,994.72
2011,11,23,00,43,994.75
2011,11,23,00,44,994.75
2011,11,23,00,45,994.79
2011,11,23,00,46,994.79
2011,11,23,00,47,994.79
2011,11,23,00,48,994.82
2011,11,23,00,49,994.82
2011,11,23,00,50,994.82
2011,11,23,00,51,994.79
2011,11,23,00,52,994.75
2011,11,23,00,53,994.82
2011,11,23,00,54,994.82
2011,11,23,00,55,994.72
2011,11,23,00,56,994.72
2011,11,23,00,57,994.75
2011,11,23,00,58,994.72
2011,11,23,00,59,994.68
2011,11,23,01,00,994.68
2011,11,23,01,01,994.65
2011,11,23,01,02,994.62
2011,11,23,01,03,994.62
2011,11,23,01,04,994.65
2011,11,23,01,05,994.65
2011,11,23,01,06,994.68
2011,11,23,01,07,994.65
2011,11,23,01,08,994.72
2011,11,23,01,09,994.72
2011,11,23,01,10,994.75
2011,11,23,01,11,994.75
2011,11,23,01,12,994.79
2011,11,23,01,13,994.82
2011,11,23,01,14,994.85
2011,11,23,01,15,994.79
2011,11,23,01,16,994.79
2011,11,23,01,17,994.75
2011,11,23,01,18,994.72
2011,11,23,01,19,994.72
2011,11,23,01,20,994.75
2011,11,23,01,21,994.75
2011,11,23,01,22,994.75
2011,11,23,01,23,994.75
2011,11,23,01,24,994.79
2011,11,23,01,25,994.79
2011,11,23,01,26,994.79
2011,11,23,01,27,994.82
2011,11,23,01,28,994.82
2011,11,23,01,29,994.82
2011,11,23,01,30,994.79
2011,11,23,01,31,994.79
2011,11,23,01,32,994.75
2011,11,23,01,33,994.75
2011,11,23,01,34,994.72
2011,11,23,01,35,994.72
2011,11,23,01,36,994.75
2011,11,23,01,37,994.75
2011,11,23,01,38,994.79
2011,11,23,01,39,994.82
2011,11,23,01,40,994.82
2011,11,23,01,41,994.79
2011,11,23,01,42,994.79
2011,11,23,01,43,994.79
2011,11,23,01,44,994.72
2011,11,23,01,45,994.75
2011,11,23,01,46,994.75
2011,11,23,01,47,994.83
2011,11,23,01,48,994.92
2011,11,23,01,49,994.96
2011,11,23,01,50,994.96
2011,11,23,01,51,994.99
2011,11,23,01,52,995.06
2011,11,23,01,53,995.02
2011,11,23,01,54,995.09
2011,11,23,01,55,995.06
2011,11,23,01,56,995.09
2011,11,23,01,57,995.16
2011,11,23,01,58,995.12
2011,11,23,01,59,995.12
2011,11,23,02,00,995.06
2011,11,23,02,01,995.02
2011,11,23,02,02,995.02
2011,11,23,02,03,994.96
2011,11,23,02,04,994.99
2011,11,23,02,05,995.02
2011,11,23,02,06,995.02
2011,11,23,02,07,995.02
2011,11,23,02,08,994.97
2011,11,23,02,09,995.06
2011,11,23,02,10,995.06
2011,11,23,02,11,995.06
2011,11,23,02,12,995.06
2011,11,23,02,13,995.06
2011,11,23,02,14,995.06
2011,11,23,02,15,995.06
2011,11,23,02,16,995.09
2011,11,23,02,17,995.12
2011,11,23,02,18,995.16
2011,11,23,02,19,995.12
2011,11,23,02,20,995.12
2011,11,23,02,21,995.09
2011,11,23,02,22,995.09
2011,11,23,02,23,995.06
2011,11,23,02,24,995.06
2011,11,23,02,25,995.06
2011,11,23,02,26,995.02
2011,11,23,02,27,995.09
2011,11,23,02,28,995.12
2011,11,23,02,29,995.16
2011,11,23,02,30,995.16
2011,11,23,02,31,995.12
2011,11,23,02,32,995.19
2011,11,23,02,33,995.19
2011,11,23,02,34,995.23
2011,11,23,02,35,995.23
2011,11,23,02,36,995.26
2011,11,23,02,37,995.23
2011,11,23,02,38,995.19
2011,11,23,02,39,995.16
2011,11,23,02,40,995.19
2011,11,23,02,41,995.12
2011,11,23,02,42,995.16
2011,11,23,02,43,995.12
2011,11,23,02,44,995.12
2011,11,23,02,45,995.09
2011,11,23,02,46,995.06
2011,11,23,02,47,995.06
2011,11,23,02,48,995.09
2011,11,23,02,49,995.09
2011,11,23,02,50,995.06
2011,11,23,02,51,995.09
2011,11,23,02,52,995.02
2011,11,23,02,53,994.99
2011,11,23,02,54,994.96
2011,11,23,02,55,994.92
2011,11,23,02,56,994.92
2011,11,23,02,57,994.99
2011,11,23,02,58,995.02
2011,11,23,02,59,995.12
2011,11,23,03,00,995.19
2011,11,23,03,01,995.23
2011,11,23,03,02,995.33
2011,11,23,03,03,995.33
2011,11,23,03,04,995.33
2011,11,23,03,05,995.36
2011,11,23,03,06,995.40
2011,11,23,03,07,995.36
2011,11,23,03,08,995.40
2011,11,23,03,09,995.40
2011,11,23,03,10,995.36
2011,11,23,03,11,995.40
2011,11,23,03,12,995.43
2011,11,23,03,13,995.36
2011,11,23,03,14,995.43
2011,11,23,03,15,995.43
2011,11,23,03,16,995.43
2011,11,23,03,17,995.47
2011,11,23,03,18,995.53
2011,11,23,03,19,995.53
2011,11,23,03,20,995.60
2011,11,23,03,21,995.60
2011,11,23,03,22,995.60
2011,11,23,03,23,995.60
2011,11,23,03,24,995.60
2011,11,23,03,25,995.56
2011,11,23,03,26,995.60
2011,11,23,03,27,995.60
2011,11,23,03,28,995.60
2011,11,23,03,29,995.56
2011,11,23,03,30,995.53
2011,11,23,03,31,995.53
2011,11,23,03,32,995.50
2011,11,23,03,33,995.50
2011,11,23,03,34,995.50
2011,11,23,03,35,995.46
2011,11,23,03,36,995.50
2011,11,23,03,37,995.50
2011,11,23,03,38,995.50
2011,11,23,03,39,995.43
2011,11,23,03,40,995.40
2011,11,23,03,41,995.40
2011,11,23,03,42,995.40
2011,11,23,03,43,995.35
2011,11,23,03,44,995.29
2011,11,23,03,45,995.29
2011,11,23,03,46,995.33
2011,11,23,03,47,995.36
2011,11,23,03,48,995.36
2011,11,23,03,49,995.43
2011,11,23,03,50,995.43
2011,11,23,03,51,995.46
2011,11,23,03,52,995.43
2011,11,23,03,53,995.43
2011,11,23,03,54,995.43
2011,11,23,03,55,995.40
2011,11,23,03,56,995.33
2011,11,23,03,57,995.36
2011,11,23,03,58,995.33
2011,11,23,03,59,995.36
2011,11,23,04,00,995.33
2011,11,23,04,01,995.33
2011,11,23,04,02,995.26
2011,11,23,04,03,995.26
2011,11,23,04,04,995.28
2011,11,23,04,05,995.24
2011,11,23,04,06,995.29
2011,11,23,04,07,995.29
2011,11,23,04,08,995.29
2011,11,23,04,09,995.33
2011,11,23,04,10,995.36
2011,11,23,04,11,995.33
2011,11,23,04,12,995.33
2011,11,23,04,13,995.29
2011,11,23,04,14,995.29
2011,11,23,04,15,995.29
2011,11,23,04,16,995.29
2011,11,23,04,17,995.36
2011,11,23,04,18,995.37
2011,11,23,04,19,995.43
2011,11,23,04,20,995.46
2011,11,23,04,21,995.47
2011,11,23,04,22,995.53
2011,11,23,04,23,995.56
2011,11,23,04,24,995.53
2011,11,23,04,25,995.53
2011,11,23,04,26,995.50
2011,11,23,04,27,995.46
2011,11,23,04,28,995.50
2011,11,23,04,29,995.46
2011,11,23,04,30,995.43
2011,11,23,04,31,995.43
2011,11,23,04,32,995.43
2011,11,23,04,33,995.46
2011,11,23,04,34,995.46
2011,11,23,04,35,995.53
2011,11,23,04,36,995.51
2011,11,23,04,37,995.56
2011,11,23,04,38,995.54
2011,11,23,04,39,995.60
2011,11,23,04,40,995.53
2011,11,23,04,41,995.60
2011,11,23,04,42,995.53
2011,11,23,04,43,995.60
2011,11,23,04,44,995.60
2011,11,23,04,45,995.63
2011,11,23,04,46,995.67
2011,11,23,04,47,995.67
2011,11,23,04,48,995.70
2011,11,23,04,49,995.73
2011,11,23,04,50,995.77
2011,11,23,04,51,995.73
2011,11,23,04,52,995.73
2011,11,23,04,53,995.77
2011,11,23,04,54,995.77
2011,11,23,04,55,995.80
2011,11,23,04,56,995.77
2011,11,23,04,57,995.77
2011,11,23,04,58,995.77
2011,11,23,04,59,995.77
2011,11,23,05,00,995.77
2011,11,23,05,01,995.81
2011,11,23,05,02,995.87
2011,11,23,05,03,995.88
2011,11,23,05,04,996.01
2011,11,23,05,05,996.04
2011,11,23,05,06,996.04
2011,11,23,05,07,996.04
2011,11,23,05,08,996.07
2011,11,23,05,09,996.11
2011,11,23,05,10,996.13
2011,11,23,05,11,996.07
2011,11,23,05,12,996.06
2011,11,23,05,13,996.01
2011,11,23,05,14,996.05
2011,11,23,05,15,996.17
2011,11,23,05,16,996.24
2011,11,23,05,17,996.28
2011,11,23,05,18,996.34
2011,11,23,05,19,996.34
2011,11,23,05,20,996.31
2011,11,23,05,21,996.34
2011,11,23,05,22,996.38
2011,11,23,05,23,996.38
2011,11,23,05,24,996.38
2011,11,23,05,25,996.34
2011,11,23,05,26,996.38
2011,11,23,05,27,996.39
2011,11,23,05,28,996.45
2011,11,23,05,29,996.41
2011,11,23,05,30,996.45
2011,11,23,05,31,996.45
2011,11,23,05,32,996.45
2011,11,23,05,33,996.45
2011,11,23,05,34,996.48
2011,11,23,05,35,996.48
2011,11,23,05,36,996.48
2011,11,23,05,37,996.48
2011,11,23,05,38,996.51
2011,11,23,05,39,996.51
2011,11,23,05,40,996.48
2011,11,23,05,41,996.45
2011,11,23,05,42,996.45
2011,11,23,05,43,996.48
2011,11,23,05,44,996.48
2011,11,23,05,45,996.48
2011,11,23,05,46,996.55
2011,11,23,05,47,996.51
2011,11,23,05,48,996.51
2011,11,23,05,49,996.48
2011,11,23,05,50,996.46
2011,11,23,05,51,996.51
2011,11,23,05,52,996.55
2011,11,23,05,53,996.55
2011,11,23,05,54,996.55
2011,11,23,05,55,996.58
2011,11,23,05,56,996.61
2011,11,23,05,57,996.65
2011,11,23,05,58,996.61
2011,11,23,05,59,996.68
2011,11,23,06,00,996.65
2011,11,23,06,01,996.72
2011,11,23,06,02,996.68
2011,11,23,06,03,996.72
2011,11,23,06,04,996.75
2011,11,23,06,05,996.75
2011,11,23,06,06,996.72
2011,11,23,06,07,996.72
2011,11,23,06,08,996.75
2011,11,23,06,09,996.78
2011,11,23,06,10,996.82
2011,11,23,06,11,996.79
2011,11,23,06,12,996.89
2011,11,23,06,13,996.92
2011,11,23,06,14,996.85
2011,11,23,06,15,996.89
2011,11,23,06,16,996.85
2011,11,23,06,17,996.89
2011,11,23,06,18,996.92
2011,11,23,06,19,996.89
2011,11,23,06,20,996.95
2011,11,23,06,21,996.95
2011,11,23,06,22,996.95
2011,11,23,06,23,996.95
2011,11,23,06,24,996.99
2011,11,23,06,25,996.95
2011,11,23,06,26,996.99
2011,11,23,06,27,997.02
2011,11,23,06,28,997.02
2011,11,23,06,29,997.02
2011,11,23,06,30,997.05
2011,11,23,06,31,997.09
2011,11,23,06,32,997.09
2011,11,23,06,33,997.12
2011,11,23,06,34,997.09
2011,11,23,06,35,997.05
2011,11,23,06,36,996.99
2011,11,23,06,37,996.92
2011,11,23,06,38,996.92
2011,11,23,06,39,996.96
2011,11,23,06,40,997.05
2011,11,23,06,41,997.10
2011,11,23,06,42,997.16
2011,11,23,06,43,997.19
2011,11,23,06,44,997.22
2011,11,23,06,45,997.26
2011,11,23,06,46,997.26
2011,11,23,06,47,997.26
2011,11,23,06,48,997.26
2011,11,23,06,49,997.26
2011,11,23,06,50,997.33
2011,11,23,06,51,997.39
2011,11,23,06,52,997.46
2011,11,23,06,53,997.46
2011,11,23,06,54,997.46
2011,11,23,06,55,997.46
2011,11,23,06,56,997.50
2011,11,23,06,57,997.53
2011,11,23,06,58,997.56
2011,11,23,06,59,997.60
2011,11,23,07,00,997.60
2011,11,23,07,01,997.60
2011,11,23,07,02,997.63
2011,11,23,07,03,997.64
2011,11,23,07,04,997.73
2011,11,23,07,05,997.80
2011,11,23,07,06,997.90
2011,11,23,07,07,997.97
2011,11,23,07,08,997.94
2011,11,23,07,09,997.90
2011,11,23,07,10,997.94
2011,11,23,07,11,997.87
2011,11,23,07,12,997.94
2011,11,23,07,13,997.94
2011,11,23,07,14,997.97
2011,11,23,07,15,998.00
2011,11,23,07,16,998.00
2011,11,23,07,17,998.04
2011,11,23,07,18,998.10
2011,11,23,07,19,998.10
2011,11,23,07,20,998.11
2011,11,23,07,21,998.21
2011,11,23,07,22,998.24
2011,11,23,07,23,998.24
2011,11,23,07,24,998.24
2011,11,23,07,25,998.24
2011,11,23,07,26,998.21
2011,11,23,07,27,998.24
2011,11,23,07,28,998.31
2011,11,23,07,29,998.27
2011,11,23,07,30,998.27
2011,11,23,07,31,998.31
2011,11,23,07,32,998.34
2011,11,23,07,33,998.38
2011,11,23,07,34,998.44
2011,11,23,07,35,998.51
2011,11,23,07,36,998.54
2011,11,23,07,37,998.54
2011,11,23,07,38,998.65
2011,11,23,07,39,998.65
2011,11,23,07,40,998.68
2011,11,23,07,41,998.68
2011,11,23,07,42,998.75
2011,11,23,07,43,998.78
2011,11,23,07,44,998.78
2011,11,23,07,45,998.85
2011,11,23,07,46,998.88
2011,11,23,07,47,998.88
2011,11,23,07,48,998.92
2011,11,23,07,49,998.95
2011,11,23,07,50,998.95
2011,11,23,07,51,999.02
2011,11,23,07,52,999.02
2011,11,23,07,53,999.05
2011,11,23,07,54,999.05
2011,11,23,07,55,999.05
2011,11,23,07,56,999.09
2011,11,23,07,57,999.02
2011,11,23,07,58,999.03
2011,11,23,07,59,999.12
2011,11,23,08,00,999.15
2011,11,23,08,01,999.16
2011,11,23,08,02,999.26
2011,11,23,08,03,999.26
2011,11,23,08,04,999.32
2011,11,23,08,05,999.32
2011,11,23,08,06,999.32
2011,11,23,08,07,999.36
2011,11,23,08,08,999.39
2011,11,23,08,09,999.36
2011,11,23,08,10,999.32
2011,11,23,08,11,999.39
2011,11,23,08,12,999.36
2011,11,23,08,13,999.39
2011,11,23,08,14,999.39
2011,11,23,08,15,999.43
2011,11,23,08,16,999.46
2011,11,23,08,17,999.43
2011,11,23,08,18,999.43
2011,11,23,08,19,999.42
2011,11,23,08,20,999.32
2011,11,23,08,21,999.29
2011,11,23,08,22,999.36
2011,11,23,08,23,999.29
2011,11,23,08,24,999.32
2011,11,23,08,25,999.32
2011,11,23,08,26,999.29
2011,11,23,08,27,999.29
2011,11,23,08,28,999.32
2011,11,23,08,29,999.36
2011,11,23,08,30,999.39
2011,11,23,08,31,999.43
2011,11,23,08,32,999.44
2011,11,23,08,33,999.53
2011,11,23,08,34,999.53
2011,11,23,08,35,999.63
2011,11,23,08,36,999.63
2011,11,23,08,37,999.63
2011,11,23,08,38,999.70
2011,11,23,08,39,999.70
2011,11,23,08,40,999.66
2011,11,23,08,41,999.66
2011,11,23,08,42,999.66
2011,11,23,08,43,999.66
2011,11,23,08,44,999.66
2011,11,23,08,45,999.73
2011,11,23,08,46,999.73
2011,11,23,08,47,999.70
2011,11,23,08,48,999.76
2011,11,23,08,49,999.80
2011,11,23,08,50,999.84
2011,11,23,08,51,999.93
2011,11,23,08,52,999.93
2011,11,23,08,53,1000.00
2011,11,23,08,54,1000.00
2011,11,23,08,55,1000.03
2011,11,23,08,56,1000.07
2011,11,23,08,57,1000.14
2011,11,23,08,58,1000.17
2011,11,23,08,59,1000.14
2011,11,23,09,00,1000.17
2011,11,23,09,01,1000.17
2011,11,23,09,02,1000.17
2011,11,23,09,03,1000.17
2011,11,23,09,04,1000.20
2011,11,23,09,05,1000.17
2011,11,23,09,06,1000.20
2011,11,23,09,07,1000.24
2011,11,23,09,08,1000.27
2011,11,23,09,09,1000.28
2011,11,23,09,10,1000.41
2011,11,23,09,11,1000.37
2011,11,23,09,12,1000.37
2011,11,23,09,13,1000.41
2011,11,23,09,14,1000.41
2011,11,23,09,15,1000.34
2011,11,23,09,16,1000.34
2011,11,23,09,17,1000.37
2011,11,23,09,18,1000.37
2011,11,23,09,19,1000.37
2011,11,23,09,20,1000.37
2011,11,23,09,21,1000.44
2011,11,23,09,22,1000.48
2011,11,23,09,23,1000.48
2011,11,23,09,24,1000.44
2011,11,23,09,25,1000.45
2011,11,23,09,26,1000.54
2011,11,23,09,27,1000.54
2011,11,23,09,28,1000.58
2011,11,23,09,29,1000.61
2011,11,23,09,30,1000.64
2011,11,23,09,31,1000.64
2011,11,23,09,32,1000.64
2011,11,23,09,33,1000.68
2011,11,23,09,34,1000.68
2011,11,23,09,35,1000.68
2011,11,23,09,36,1000.71
2011,11,23,09,37,1000.71
2011,11,23,09,38,1000.75
2011,11,23,09,39,1000.78
2011,11,23,09,40,1000.88
2011,11,23,09,41,1000.88
2011,11,23,09,42,1000.88
2011,11,23,09,43,1000.85
2011,11,23,09,44,1000.85
2011,11,23,09,45,1000.95
2011,11,23,09,46,1000.88
2011,11,23,09,47,1000.95
2011,11,23,09,48,1000.98
2011,11,23,09,49,1000.98
2011,11,23,09,50,1001.05
2011,11,23,09,51,1001.08
2011,11,23,09,52,1001.08
2011,11,23,09,53,1001.08
2011,11,23,09,54,1001.15
2011,11,23,09,55,1001.15
2011,11,23,09,56,1001.15
2011,11,23,09,57,1001.15
2011,11,23,09,58,1001.12
2011,11,23,09,59,1001.19
2011,11,23,10,00,1001.15
2011,11,23,10,01,1001.19
2011,11,23,10,02,1001.25
2011,11,23,10,03,1001.22
2011,11,23,10,04,1001.19
2011,11,23,10,05,1001.16
2011,11,23,10,06,1001.25
2011,11,23,10,07,1001.22
2011,11,23,10,08,1001.25
2011,11,23,10,09,1001.32
2011,11,23,10,10,1001.32
2011,11,23,10,11,1001.36
2011,11,23,10,12,1001.36
2011,11,23,10,13,1001.36
2011,11,23,10,14,1001.39
2011,11,23,10,15,1001.39
2011,11,23,10,16,1001.36
2011,11,23,10,17,1001.39
2011,11,23,10,18,1001.42
2011,11,23,10,19,1001.49
2011,11,23,10,20,1001.49
2011,11,23,10,21,1001.52
2011,11,23,10,22,1001.56
2011,11,23,10,23,1001.52
2011,11,23,10,24,1001.59
2011,11,23,10,25,1001.59
2011,11,23,10,26,1001.66
2011,11,23,10,27,1001.66
2011,11,23,10,28,1001.69
2011,11,23,10,29,1001.73
2011,11,23,10,30,1001.73
2011,11,23,10,31,1001.80
2011,11,23,10,32,1001.83
2011,11,23,10,33,1001.83
2011,11,23,10,34,1001.86
2011,11,23,10,35,1001.90
2011,11,23,10,36,1001.86
2011,11,23,10,37,1001.93
2011,11,23,10,38,1001.97
2011,11,23,10,39,1001.93
2011,11,23,10,40,1001.97
2011,11,23,10,41,1001.97
2011,11,23,10,42,1002.00
2011,11,23,10,43,1002.00
2011,11,23,10,44,1001.97
2011,11,23,10,45,1001.97
2011,11,23,10,46,1002.00
2011,11,23,10,47,1001.97
2011,11,23,10,48,1002.00
2011,11,23,10,49,1002.07
2011,11,23,10,50,1002.07
2011,11,23,10,51,1002.10
2011,11,23,10,52,1002.17
2011,11,23,10,53,1002.13
2011,11,23,10,54,1002.17
2011,11,23,10,55,1002.17
2011,11,23,10,56,1002.20
2011,11,23,10,57,1002.27
2011,11,23,10,58,1002.27
2011,11,23,10,59,1002.30
2011,11,23,11,00,1002.34
2011,11,23,11,01,1002.34
2011,11,23,11,02,1002.37
2011,11,23,11,03,1002.37
2011,11,23,11,04,1002.44
2011,11,23,11,05,1002.44
2011,11,23,11,06,1002.44
2011,11,23,11,07,1002.44
2011,11,23,11,08,1002.44
2011,11,23,11,09,1002.51
2011,11,23,11,10,1002.47
2011,11,23,11,11,1002.44
2011,11,23,11,12,1002.47
2011,11,23,11,13,1002.47
2011,11,23,11,14,1002.51
2011,11,23,11,15,1002.51
2011,11,23,11,16,1002.47
2011,11,23,11,17,1002.47
2011,11,23,11,18,1002.47
2011,11,23,11,19,1002.47
2011,11,23,11,20,1002.47
2011,11,23,11,21,1002.44
2011,11,23,11,22,1002.47
2011,11,23,11,23,1002.44
2011,11,23,11,24,1002.44
2011,11,23,11,25,1002.47
2011,11,23,11,26,1002.47
2011,11,23,11,27,1002.54
2011,11,23,11,28,1002.52
2011,11,23,11,29,1002.61
2011,11,23,11,30,1002.61
2011,11,23,11,31,1002.64
2011,11,23,11,32,1002.68
2011,11,23,11,33,1002.71
2011,11,23,11,34,1002.71
2011,11,23,11,35,1002.74
2011,11,23,11,36,1002.78
2011,11,23,11,37,1002.81
2011,11,23,11,38,1002.81
2011,11,23,11,39,1002.88
2011,11,23,11,40,1002.85
2011,11,23,11,41,1002.88
2011,11,23,11,42,1002.95
2011,11,23,11,43,1002.91
2011,11,23,11,44,1002.95
2011,11,23,11,45,1002.95
2011,11,23,11,46,1002.98
2011,11,23,11,47,1002.98
2011,11,23,11,48,1003.01
2011,11,23,11,49,1003.08
2011,11,23,11,50,1003.05
2011,11,23,11,51,1003.08
2011,11,23,11,52,1003.08
2011,11,23,11,53,1003.12
2011,11,23,11,54,1003.15
2011,11,23,11,55,1003.15
2011,11,23,11,56,1003.15
2011,11,23,11,57,1003.18
2011,11,23,11,58,1003.18
2011,11,23,11,59,1003.18
2011,11,23,12,00,1003.22
2011,11,23,12,01,1003.22
2011,11,23,12,02,1003.22
2011,11,23,12,03,1003.25
2011,11,23,12,04,1003.22
2011,11,23,12,05,1003.25
2011,11,23,12,06,1003.25
2011,11,23,12,07,1003.22
2011,11,23,12,08,1003.25
2011,11,23,12,09,1003.29
2011,11,23,12,10,1003.29
2011,11,23,12,11,1003.29
2011,11,23,12,12,1003.29
2011,11,23,12,13,1003.32
2011,11,23,12,14,1003.32
2011,11,23,12,15,1003.32
2011,11,23,12,16,1003.39
2011,11,23,12,17,1003.35
2011,11,23,12,18,1003.42
2011,11,23,12,19,1003.39
2011,11,23,12,20,1003.39
2011,11,23,12,21,1003.42
2011,11,23,12,22,1003.46
2011,11,23,12,23,1003.42
2011,11,23,12,24,1003.42
2011,11,23,12,25,1003.39
2011,11,23,12,26,1003.42
2011,11,23,12,27,1003.39
2011,11,23,12,28,1003.39
2011,11,23,12,29,1003.35
2011,11,23,12,30,1003.42
2011,11,23,12,31,1003.46
2011,11,23,12,32,1003.46
2011,11,23,12,33,1003.49
2011,11,23,12,34,1003.52
2011,11,23,12,35,1003.52
2011,11,23,12,36,1003.52
2011,11,23,12,37,1003.56
2011,11,23,12,38,1003.49
2011,11,23,12,39,1003.56
2011,11,23,12,40,1003.52
2011,11,23,12,41,1003.49
2011,11,23,12,42,1003.52
2011,11,23,12,43,1003.52
2011,11,23,12,44,1003.49
2011,11,23,12,45,1003.52
2011,11,23,12,46,1003.49
2011,11,23,12,47,1003.49
2011,11,23,12,48,1003.49
2011,11,23,12,49,1003.52
2011,11,23,12,50,1003.42
2011,11,23,12,51,1003.46
2011,11,23,12,52,1003.46
2011,11,23,12,53,1003.42
2011,11,23,12,54,1003.46
2011,11,23,12,55,1003.49
2011,11,23,12,56,1003.52
2011,11,23,12,57,1003.52
2011,11,23,12,58,1003.56
2011,11,23,12,59,1003.59
2011,11,23,13,00,1003.59
2011,11,23,13,01,1003.62
2011,11,23,13,02,1003.62
2011,11,23,13,03,1003.66
2011,11,23,13,04,1003.62
2011,11,23,13,05,1003.59
2011,11,23,13,06,1003.66
2011,11,23,13,07,1003.66
2011,11,23,13,08,1003.66
2011,11,23,13,09,1003.66
2011,11,23,13,10,1003.66
2011,11,23,13,11,1003.66
2011,11,23,13,12,1003.62
2011,11,23,13,13,1003.66
2011,11,23,13,14,1003.66
2011,11,23,13,15,1003.69
2011,11,23,13,16,1003.69
2011,11,23,13,17,1003.69
2011,11,23,13,18,1003.66
2011,11,23,13,19,1003.59
2011,11,23,13,20,1003.62
2011,11,23,13,21,1003.59
2011,11,23,13,22,1003.66
2011,11,23,13,23,1003.69
2011,11,23,13,24,1003.69
2011,11,23,13,25,1003.69
2011,11,23,13,26,1003.69
2011,11,23,13,27,1003.69
2011,11,23,13,28,1003.66
2011,11,23,13,29,1003.66
2011,11,23,13,30,1003.66
2011,11,23,13,31,1003.69
2011,11,23,13,32,1003.76
2011,11,23,13,33,1003.73
2011,11,23,13,34,1003.69
2011,11,23,13,35,1003.73
2011,11,23,13,36,1003.73
2011,11,23,13,37,1003.69
2011,11,23,13,38,1003.76
2011,11,23,13,39,1003.79
2011,11,23,13,40,1003.76
2011,11,23,13,41,1003.73
2011,11,23,13,42,1003.73
2011,11,23,13,43,1003.76
2011,11,23,13,44,1003.76
2011,11,23,13,45,1003.76
2011,11,23,13,46,1003.76
2011,11,23,13,47,1003.76
2011,11,23,13,48,1003.79
2011,11,23,13,49,1003.83
2011,11,23,13,50,1003.83
2011,11,23,13,51,1003.86
2011,11,23,13,52,1003.83
2011,11,23,13,53,1003.90
2011,11,23,13,54,1003.93
2011,11,23,13,55,1003.93
2011,11,23,13,56,1003.93
2011,11,23,13,57,1003.93
2011,11,23,13,58,1004.00
2011,11,23,13,59,1004.00
2011,11,23,14,00,1003.96
2011,11,23,14,01,1004.00
2011,11,23,14,02,1004.00
2011,11,23,14,03,1004.03
2011,11,23,14,04,1004.00
2011,11,23,14,05,1004.06
2011,11,23,14,06,1004.06
2011,11,23,14,07,1004.06
2011,11,23,14,08,1004.10
2011,11,23,14,09,1004.13
2011,11,23,14,10,1004.13
2011,11,23,14,11,1004.17
2011,11,23,14,12,1004.17
2011,11,23,14,13,1004.23
2011,11,23,14,14,1004.23
2011,11,23,14,15,1004.23
2011,11,23,14,16,1004.23
2011,11,23,14,17,1004.23
2011,11,23,14,18,1004.23
2011,11,23,14,19,1004.27
2011,11,23,14,20,1004.27
2011,11,23,14,21,1004.27
2011,11,23,14,22,1004.30
2011,11,23,14,23,1004.27
2011,11,23,14,24,1004.30
2011,11,23,14,25,1004.27
2011,11,23,14,26,1004.27
2011,11,23,14,27,1004.27
2011,11,23,14,28,1004.30
2011,11,23,14,29,1004.27
2011,11,23,14,30,1004.30
2011,11,23,14,31,1004.34
2011,11,23,14,32,1004.37
2011,11,23,14,33,1004.37
2011,11,23,14,34,1004.37
2011,11,23,14,35,1004.37
2011,11,23,14,36,1004.44
2011,11,23,14,37,1004.40
2011,11,23,14,38,1004.37
2011,11,23,14,39,1004.40
2011,11,23,14,40,1004.37
2011,11,23,14,41,1004.37
2011,11,23,14,42,1004.37
2011,11,23,14,43,1004.34
2011,11,23,14,44,1004.34
2011,11,23,14,45,1004.30
2011,11,23,14,46,1004.34
2011,11,23,14,47,1004.30
2011,11,23,14,48,1004.27
2011,11,23,14,49,1004.30
2011,11,23,14,50,1004.27
2011,11,23,14,51,1004.27
2011,11,23,14,52,1004.30
2011,11,23,14,53,1004.34
2011,11,23,14,54,1004.37
2011,11,23,14,55,1004.40
2011,11,23,14,56,1004.37
2011,11,23,14,57,1004.37
2011,11,23,14,58,1004.40
2011,11,23,14,59,1004.40
2011,11,23,15,00,1004.44
2011,11,23,15,01,1004.50
2011,11,23,15,02,1004.50
2011,11,23,15,03,1004.54
2011,11,23,15,04,1004.57
2011,11,23,15,05,1004.61
2011,11,23,15,06,1004.61
2011,11,23,15,07,1004.64
2011,11,23,15,08,1004.64
2011,11,23,15,09,1004.71
2011,11,23,15,10,1004.67
2011,11,23,15,11,1004.71
2011,11,23,15,12,1004.71
2011,11,23,15,13,1004.67
2011,11,23,15,14,1004.71
2011,11,23,15,15,1004.78
2011,11,23,15,16,1004.74
2011,11,23,15,17,1004.78
2011,11,23,15,18,1004.78
2011,11,23,15,19,1004.81
2011,11,23,15,20,1004.81
2011,11,23,15,21,1004.81
2011,11,23,15,22,1004.81
2011,11,23,15,23,1004.81
2011,11,23,15,24,1004.78
2011,11,23,15,25,1004.84
2011,11,23,15,26,1004.81
2011,11,23,15,27,1004.91
2011,11,23,15,28,1004.88
2011,11,23,15,29,1004.88
2011,11,23,15,30,1004.91
2011,11,23,15,31,1004.92
2011,11,23,15,32,1005.01
2011,11,23,15,33,1005.05
2011,11,23,15,34,1005.05
2011,11,23,15,35,1005.08
2011,11,23,15,36,1005.11
2011,11,23,15,37,1005.11
2011,11,23,15,38,1005.18
2011,11,23,15,39,1005.18
2011,11,23,15,40,1005.25
2011,11,23,15,41,1005.25
2011,11,23,15,42,1005.28
2011,11,23,15,43,1005.28
2011,11,23,15,44,1005.28
2011,11,23,15,45,1005.28
2011,11,23,15,46,1005.32
2011,11,23,15,47,1005.32
2011,11,23,15,48,1005.35
2011,11,23,15,49,1005.39
2011,11,23,15,50,1005.35
2011,11,23,15,51,1005.39
2011,11,23,15,52,1005.32
2011,11,23,15,53,1005.32
2011,11,23,15,54,1005.32
2011,11,23,15,55,1005.28
2011,11,23,15,56,1005.39
2011,11,23,15,57,1005.35
2011,11,23,15,58,1005.39
2011,11,23,15,59,1005.39
2011,11,23,16,00,1005.49
2011,11,23,16,01,1005.49
2011,11,23,16,02,1005.45
2011,11,23,16,03,1005.42
2011,11,23,16,04,1005.42
2011,11,23,16,05,1005.39
2011,11,23,16,06,1005.39
2011,11,23,16,07,1005.45
2011,11,23,16,08,1005.42
2011,11,23,16,09,1005.52
2011,11,23,16,10,1005.49
2011,11,23,16,11,1005.49
2011,11,23,16,12,1005.45
2011,11,23,16,13,1005.45
2011,11,23,16,14,1005.42
2011,11,23,16,15,1005.42
2011,11,23,16,16,1005.39
2011,11,23,16,17,1005.42